EW4504 Weather Reports


time (UTC)temp
C
wind
direction
speed
KPH
gust
KPH
rain 1hr
cm
rain 24hr
cm
rain mn
cm
humidity
%
barometer
mb
20260510031033 18 224 3.2 11.3 0.00 0.00 0.00 84 1014.5
20260510030534 18 193 3.2 11.3 0.00 0.00 0.00 84 1014.4
20260510030038 18 226 3.2 9.7 0.00 0.00 0.00 83 1014.4
20260510025533 18 201 3.2 9.7 0.00 0.00 0.00 83 1014.2
20260510025033 18 211 4.8 9.7 0.00 0.00 0.00 83 1014.2
20260510024545 18 191 4.8 9.7 0.00 0.00 0.00 83 1014.2
20260510024029 18 241 3.2 8.0 0.00 0.00 0.00 82 1014.2
20260510023531 18 202 3.2 8.0 0.00 0.00 0.00 82 1014.1
20260510023044 18 196 3.2 8.0 0.00 0.00 0.00 82 1014.1
20260510022534 18 205 1.6 8.0 0.00 0.00 0.00 82 1014.0
20260510022033 18 209 1.6 8.0 0.00 0.00 0.00 82 1013.7
20260510021540 19 210 3.2 9.7 0.00 0.00 0.00 81 1013.7
20260510021031 19 212 3.2 11.3 0.00 0.00 0.00 81 1013.6
20260510020533 19 200 3.2 11.3 0.00 0.00 0.00 81 1013.7
20260510020041 19 199 4.8 11.3 0.00 0.00 0.00 81 1013.5
20260510015536 19 194 4.8 11.3 0.00 0.00 0.00 81 1013.6
20260510015030 19 196 3.2 11.3 0.00 0.00 0.00 80 1013.5
20260510014546 19 193 3.2 9.7 0.00 0.00 0.00 80 1013.4
20260510014032 19 213 4.8 9.7 0.00 0.00 0.00 80 1013.3
20260510013533 19 238 4.8 9.7 0.00 0.00 0.00 80 1013.3
20260510013054 19 156 3.2 9.7 0.00 0.00 0.00 80 1013.2
20260510012531 20 206 1.6 4.8 0.00 0.00 0.00 79 1013.3
20260510012034 20 209 0.0 6.4 0.00 0.00 0.00 79 1013.3
20260510011541 20 192 1.6 8.0 0.00 0.00 0.00 78 1013.2
20260510011032 20 190 3.2 9.7 0.00 0.00 0.00 78 1013.2
20260510010532 20 216 3.2 9.7 0.00 0.00 0.00 78 1013.2
20260510010041 20 219 4.8 9.7 0.00 0.00 0.00 78 1013.0
20260510005531 20 212 3.2 8.0 0.00 0.00 0.00 77 1012.9
20260510005032 20 218 3.2 8.0 0.00 0.00 0.00 77 1012.8
20260510004539 20 225 4.8 8.0 0.00 0.00 0.00 77 1012.9
20260510004031 20 210 1.6 8.0 0.00 0.00 0.00 77 1012.9
20260510003533 20 203 1.6 4.8 0.00 0.00 0.00 76 1012.8
20260510003040 20 0 0.0 6.4 0.00 0.00 0.00 75 1012.7
20260510002532 20 209 3.2 6.4 0.00 0.00 0.00 75 1012.8
20260510002034 21 221 0.0 4.8 0.00 0.00 0.00 75 1012.8
20260510001535 21 221 1.6 6.4 0.00 0.00 0.00 74 1012.8
20260510001032 21 221 1.6 8.0 0.00 0.00 0.00 74 1012.7
20260510000531 21 221 3.2 8.0 0.00 0.00 0.00 73 1012.5
20260510000043 21 215 4.8 8.0 0.00 0.00 0.00 73 1012.6
20260509235531 21 215 3.2 8.0 0.00 0.00 0.00 73 1012.6
20260509235033 21 211 3.2 9.7 0.00 0.00 0.00 72 1012.5
20260509234542 21 207 3.2 9.7 0.00 0.00 0.00 72 1012.3
20260509234032 21 209 3.2 8.0 0.00 0.00 0.00 72 1012.4
20260509233531 21 218 3.2 8.0 0.00 0.00 0.00 72 1012.3
20260509233040 21 226 3.2 8.0 0.00 0.00 0.00 72 1012.2
20260509232529 21 204 1.6 6.4 0.00 0.00 0.00 72 1012.0
20260509232032 21 203 1.6 4.8 0.00 0.00 0.00 71 1011.9
20260509231543 22 211 0.0 8.0 0.00 0.00 0.00 71 1011.8
20260509231030 22 211 1.6 8.0 0.00 0.00 0.00 70 1011.8
20260509230532 22 189 3.2 8.0 0.00 0.00 0.00 70 1011.9
20260509230041 22 213 1.6 9.7 0.00 0.00 0.00 70 1011.8
20260509225532 22 0 3.2 9.7 0.00 0.00 0.00 69 1011.7
20260509225031 22 210 3.2 6.4 0.00 0.00 0.00 69 1011.8
20260509224541 22 194 0.0 4.8 0.00 0.00 0.00 68 1011.7
20260509224033 22 193 1.6 4.8 0.00 0.00 0.00 68 1011.8
20260509223530 22 0 1.6 8.0 0.00 0.00 0.00 68 1011.8
20260509223044 22 0 3.2 8.0 0.00 0.00 0.00 67 1011.8
20260509222529 22 202 3.2 8.0 0.00 0.00 0.00 67 1011.8
20260509222029 22 0 1.6 8.0 0.00 0.00 0.00 66 1011.8
20260509221538 22 200 1.6 8.0 0.00 0.00 0.00 66 1011.6
20260509221031 22 206 3.2 8.0 0.00 0.00 0.00 67 1011.6
20260509220531 22 219 4.8 8.0 0.00 0.00 0.00 67 1011.5
20260509220041 22 189 0.0 6.4 0.00 0.00 0.00 66 1011.5
20260509215532 22 189 3.2 6.4 0.00 0.00 0.00 66 1011.4
20260509215033 22 0 3.2 9.7 0.00 0.00 0.00 66 1011.6
20260509214540 22 206 4.8 9.7 0.00 0.00 0.00 66 1011.6
20260509214033 22 200 3.2 9.7 0.00 0.00 0.00 66 1011.6
20260509213529 22 296 3.2 8.0 0.00 0.00 0.00 65 1011.6
20260509213042 22 200 3.2 9.7 0.00 0.00 0.00 65 1011.5
20260509212531 22 192 4.8 9.7 0.00 0.00 0.00 66 1011.4
20260509212032 22 203 3.2 8.0 0.00 0.00 0.00 66 1011.2
20260509211545 22 0 1.6 6.4 0.00 0.00 0.00 65 1011.1
20260509211032 22 207 0.0 16.1 0.00 0.00 0.00 65 1011.1
20260509210530 23 207 3.2 16.1 0.00 0.00 0.00 65 1011.1
20260509210047 23 220 1.6 12.9 0.00 0.00 0.00 64 1011.3
20260509205530 23 244 3.2 12.9 0.00 0.00 0.00 65 1011.3
20260509205031 23 250 1.6 8.0 0.00 0.00 0.00 65 1011.3
20260509204546 23 251 1.6 11.3 0.00 0.00 0.00 65 1011.3
20260509204032 22 193 3.2 11.3 0.00 0.00 0.00 65 1011.4
20260509203528 22 203 6.4 12.9 0.00 0.00 0.00 66 1011.4
20260509203040 22 242 1.6 12.9 0.00 0.00 0.00 66 1011.3
20260509202531 23 211 6.4 12.9 0.00 0.00 0.00 66 1011.1
20260509202032 23 224 1.6 11.3 0.00 0.00 0.00 66 1011.4
20260509201540 22 196 6.4 11.3 0.00 0.00 0.00 66 1011.6
20260509201031 22 0 3.2 16.1 0.00 0.00 0.00 66 1011.5
20260509200531 22 202 3.2 16.1 0.00 0.00 0.00 67 1011.5
20260509200044 22 186 4.8 14.5 0.00 0.00 0.00 68 1011.6
20260509195533 22 204 3.2 12.9 0.00 0.00 0.00 67 1011.5
20260509195031 22 132 4.8 12.9 0.00 0.00 0.00 66 1011.5
20260509194543 22 249 1.6 9.7 0.00 0.00 0.00 66 1011.5
20260509194034 22 262 1.6 9.7 0.00 0.00 0.00 67 1011.7
20260509193530 22 281 4.8 9.7 0.00 0.00 0.00 66 1011.6
20260509193041 22 232 1.6 11.3 0.00 0.00 0.00 67 1011.7
20260509192531 22 257 3.2 11.3 0.00 0.00 0.00 67 1011.7
20260509192032 22 290 1.6 8.0 0.00 0.00 0.00 69 1011.8
20260509191542 22 217 3.2 14.5 0.00 0.00 0.00 70 1011.9
20260509191033 21 275 3.2 14.5 0.00 0.00 0.00 69 1012.0
20260509190531 21 355 6.4 12.9 0.00 0.00 0.00 69 1012.0
20260509190047 21 223 1.6 8.0 0.00 0.00 0.00 70 1012.1
20260509185532 21 300 1.6 8.0 0.00 0.00 0.00 72 1012.1
20260509185031 21 305 1.6 8.0 0.00 0.00 0.00 72 1012.2
20260509184622 20 0 0.0 9.7 0.00 0.00 0.00 73 1012.0
20260509184030 20 204 4.8 11.3 0.00 0.00 0.00 73 1012.2
20260509183530 21 229 1.6 11.3 0.00 0.00 0.00 73 1012.1
20260509183042 21 232 1.6 8.0 0.00 0.00 0.00 72 1012.2
20260509182530 21 0 1.6 9.7 0.00 0.00 0.00 72 1012.2
20260509182031 21 255 4.8 12.9 0.00 0.00 0.00 73 1012.4
20260509181546 21 313 4.8 12.9 0.00 0.00 0.00 73 1012.4
20260509181030 21 209 4.8 11.3 0.00 0.00 0.00 74 1012.5
20260509180534 21 0 0.0 9.7 0.00 0.00 0.00 74 1012.4
20260509180041 20 331 4.8 11.3 0.00 0.00 0.00 74 1012.4
20260509175534 20 331 1.6 11.3 0.00 0.00 0.00 75 1012.3
20260509175031 20 315 4.8 12.9 0.00 0.00 0.00 74 1012.2
20260509174540 20 309 6.4 12.9 0.00 0.00 0.00 76 1012.1
20260509174035 20 199 1.6 14.5 0.00 0.00 0.00 77 1012.1
20260509173536 20 273 4.8 14.5 0.00 0.00 0.00 80 1012.4
20260509173046 19 225 3.2 12.9 0.00 0.00 0.00 80 1012.5
20260509172530 18 273 4.8 11.3 0.00 0.00 0.00 80 1012.7
20260509172031 18 289 3.2 9.7 0.00 0.00 0.00 81 1012.8
20260509171544 18 225 3.2 11.3 0.00 0.00 0.00 82 1012.8
20260509171031 18 212 4.8 12.9 0.00 0.00 0.00 83 1012.6
20260509170530 18 193 4.8 19.3 0.00 0.00 0.00 83 1012.8
20260509170044 18 187 6.4 19.3 0.00 0.00 0.00 84 1012.9
20260509165531 18 225 4.8 14.5 0.00 0.00 0.00 86 1012.9
20260509165031 18 323 4.8 14.5 0.00 0.00 0.00 86 1013.0
20260509164540 18 295 1.6 9.7 0.00 0.00 0.00 88 1012.8
20260509164031 17 311 3.2 9.7 0.00 0.00 0.00 88 1012.9
20260509163532 17 311 1.6 8.0 0.00 0.00 0.00 89 1012.8
20260509163105 17 0 3.2 8.0 0.00 0.00 0.00 90 1012.9
20260509162530 17 0 0.0 6.4 0.00 0.00 0.00 90 1013.1
20260509162034 17 271 1.6 6.4 0.00 0.00 0.00 91 1013.0
20260509161545 17 0 1.6 6.4 0.00 0.00 0.00 91 1012.9
20260509161030 17 258 1.6 6.4 0.00 0.00 0.00 91 1013.0
20260509160531 17 263 0.0 6.4 0.00 0.00 0.00 91 1013.0
20260509160047 17 0 0.0 6.4 0.00 0.00 0.00 91 1013.0
20260509155530 17 0 1.6 9.7 0.00 0.00 0.00 91 1013.1
20260509155032 17 230 1.6 9.7 0.00 0.00 0.00 91 1013.0
20260509154545 17 275 3.2 6.4 0.00 0.00 0.00 91 1013.0
20260509154032 17 236 1.6 8.0 0.00 0.00 0.00 92 1013.1
20260509153529 17 234 1.6 8.0 0.00 0.00 0.00 91 1013.0
20260509153041 17 215 1.6 6.4 0.00 0.00 0.00 91 1012.9
20260509152530 17 236 1.6 6.4 0.00 0.00 0.00 91 1012.9
20260509152033 17 239 3.2 9.7 0.00 0.00 0.00 92 1013.1
20260509151539 16 242 1.6 9.7 0.00 0.00 0.00 91 1013.2
20260509151029 16 217 3.2 9.7 0.00 0.00 0.00 91 1013.3
20260509150531 16 213 3.2 6.4 0.00 0.00 0.00 91 1013.4
20260509150041 16 209 4.8 9.7 0.00 0.00 0.00 91 1013.3
20260509145531 16 196 3.2 9.7 0.00 0.00 0.00 90 1013.3
20260509145031 16 236 3.2 9.7 0.00 0.00 0.00 90 1013.2
20260509144545 17 204 3.2 9.7 0.00 0.00 0.00 90 1013.5
20260509144031 17 217 3.2 9.7 0.00 0.00 0.00 90 1013.3
20260509143530 17 215 4.8 9.7 0.00 0.00 0.00 90 1013.3
20260509143049 17 210 4.8 9.7 0.00 0.00 0.00 89 1013.3
20260509142530 17 219 3.2 8.0 0.00 0.00 0.00 89 1013.2
20260509142032 17 202 3.2 9.7 0.00 0.00 0.00 89 1013.1
20260509141548 17 225 3.2 9.7 0.00 0.00 0.00 88 1013.1
20260509141032 16 236 4.8 12.9 0.00 0.00 0.00 88 1012.8
20260509140530 16 206 4.8 12.9 0.00 0.00 0.00 88 1012.8
20260509140048 16 187 3.2 9.7 0.00 0.00 0.00 88 1012.7
20260509135529 16 245 3.2 11.3 0.00 0.00 0.00 88 1012.7
20260509135034 16 234 4.8 11.3 0.00 0.00 0.00 88 1012.6
20260509134537 16 267 1.6 9.7 0.00 0.00 0.00 88 1012.5
20260509134031 16 0 0.0 6.4 0.00 0.00 0.00 88 1012.4
20260509133532 16 0 3.2 6.4 0.00 0.00 0.00 88 1012.4
20260509133037 16 0 1.6 4.8 0.00 0.00 0.00 88 1012.4
20260509132532 16 130 0.0 4.8 0.00 0.00 0.00 88 1012.3
20260509132030 16 129 0.0 3.2 0.00 0.00 0.00 88 1012.2
20260509131543 16 0 0.0 3.2 0.00 0.00 0.00 88 1012.1
20260509131032 16 0 0.0 3.2 0.00 0.00 0.00 88 1012.1
20260509130529 16 0 0.0 3.2 0.00 0.00 0.00 88 1012.1
20260509130044 16 80 1.6 3.2 0.00 0.00 0.00 88 1012.1
20260509125529 16 0 0.0 4.8 0.00 0.00 0.00 88 1012.1
20260509125030 16 0 0.0 4.8 0.00 0.00 0.00 88 1012.2
20260509124540 16 0 0.0 4.8 0.00 0.00 0.00 88 1012.0
20260509124031 16 0 0.0 4.8 0.00 0.00 0.00 88 1011.9
20260509123531 16 0 1.6 4.8 0.00 0.00 0.00 88 1011.9
20260509123049 16 0 0.0 1.6 0.00 0.00 0.00 88 1011.8
20260509122530 16 0 0.0 1.6 0.00 0.00 0.00 88 1011.8
20260509122032 16 0 0.0 0.0 0.00 0.00 0.00 88 1011.8
20260509121544 16 0 0.0 0.0 0.00 0.00 0.00 88 1011.8
20260509121030 16 0 0.0 0.0 0.00 0.00 0.00 88 1011.8
20260509120531 16 0 0.0 0.0 0.00 0.00 0.00 89 1011.8
20260509120043 15 0 0.0 0.0 0.00 0.00 0.00 88 1011.8
20260509115533 15 0 0.0 1.6 0.00 0.00 0.00 88 1012.0
20260509115032 15 0 0.0 1.6 0.00 0.00 0.00 88 1011.9
20260509114543 15 0 0.0 1.6 0.00 0.00 0.00 88 1012.0
20260509114029 15 0 0.0 3.2 0.00 0.00 0.00 89 1012.0
20260509113529 15 0 0.0 4.8 0.00 0.00 0.00 89 1012.0
20260509113052 15 0 0.0 4.8 0.00 0.00 0.00 89 1012.1
20260509112531 15 178 1.6 4.8 0.00 0.00 0.00 89 1012.1
20260509112028 15 178 0.0 4.8 0.00 0.00 0.00 89 1012.1
20260509111547 15 178 1.6 4.8 0.00 0.00 0.00 89 1012.1
20260509111031 15 0 0.0 4.8 0.00 0.00 0.00 89 1011.9
20260509110529 15 206 0.0 4.8 0.00 0.00 0.00 89 1012.0
20260509110047 15 206 0.0 3.2 0.00 0.00 0.00 89 1012.0
20260509105532 15 0 0.0 3.2 0.00 0.00 0.00 89 1011.9
20260509105030 15 0 0.0 3.2 0.00 0.00 0.00 89 1011.8
20260509104541 15 0 0.0 0.0 0.00 0.00 0.00 89 1011.8
20260509104028 15 0 0.0 8.0 0.00 0.00 0.00 89 1011.6
20260509103528 15 0 1.6 8.0 0.00 0.00 0.00 89 1011.4
20260509103052 15 194 0.0 4.8 0.00 0.00 0.00 89 1011.7
20260509102531 15 0 0.0 3.2 0.00 0.00 0.00 88 1011.6
20260509102032 15 0 0.0 3.2 0.00 0.00 0.00 89 1011.8
20260509101540 15 0 0.0 3.2 0.00 0.00 0.00 89 1011.6
20260509101028 15 0 0.0 3.2 0.00 0.00 0.00 89 1011.8
20260509100532 15 0 0.0 3.2 0.00 0.00 0.00 89 1011.8
20260509100108 15 0 0.0 3.2 0.00 0.00 0.00 89 1011.8
20260509095531 15 0 0.0 0.0 0.00 0.00 0.00 89 1012.1
20260509095030 15 0 0.0 0.0 0.00 0.00 0.00 89 1012.1
20260509094551 15 0 0.0 0.0 0.00 0.00 0.00 88 1012.2
20260509094030 14 0 0.0 0.0 0.00 0.00 0.00 89 1012.3
20260509093532 14 0 0.0 0.0 0.00 0.00 0.00 89 1012.2
20260509093044 14 0 0.0 0.0 0.00 0.00 0.00 88 1012.3
20260509092528 14 0 0.0 0.0 0.00 0.00 0.00 88 1012.0
20260509092031 14 0 0.0 0.0 0.00 0.00 0.00 88 1012.1
20260509091544 14 0 0.0 0.0 0.00 0.00 0.00 88 1012.0
20260509091029 14 0 0.0 0.0 0.00 0.00 0.00 88 1012.1
20260509090529 14 0 0.0 0.0 0.00 0.00 0.00 88 1011.9
20260509090043 14 0 0.0 0.0 0.00 0.00 0.00 88 1011.9
20260509085528 14 0 0.0 0.0 0.00 0.00 0.00 88 1012.1
20260509085031 14 0 0.0 0.0 0.00 0.00 0.00 88 1012.1
20260509084538 14 0 0.0 0.0 0.00 0.00 0.00 88 1012.0
20260509084028 14 0 0.0 0.0 0.00 0.00 0.00 88 1012.0
20260509083531 14 0 0.0 0.0 0.00 0.00 0.00 88 1011.9
20260509083046 14 0 0.0 0.0 0.00 0.00 0.00 88 1011.9
20260509082530 14 0 0.0 0.0 0.00 0.00 0.00 88 1011.9
20260509082029 14 0 0.0 0.0 0.00 0.00 0.00 88 1011.9
20260509081546 14 0 0.0 0.0 0.00 0.00 0.00 88 1012.0
20260509081031 14 0 0.0 0.0 0.00 0.00 0.00 88 1012.0
20260509080534 14 0 0.0 0.0 0.00 0.00 0.00 88 1012.0
20260509080048 14 0 0.0 0.0 0.00 0.00 0.00 88 1012.0
20260509075528 14 0 0.0 0.0 0.00 0.00 0.00 87 1011.8
20260509075028 14 0 0.0 0.0 0.00 0.00 0.00 87 1011.8
20260509074542 14 0 0.0 0.0 0.00 0.00 0.00 87 1011.8
20260509074032 14 0 0.0 0.0 0.00 0.00 0.00 88 1011.9
20260509073528 14 0 0.0 0.0 0.00 0.00 0.00 88 1011.9
20260509073045 14 0 0.0 0.0 0.00 0.00 0.00 88 1011.8
20260509072528 14 0 0.0 0.0 0.00 0.00 0.00 88 1011.9
20260509072031 13 0 0.0 0.0 0.00 0.00 0.00 88 1011.8
20260509071545 13 0 0.0 0.0 0.00 0.00 0.00 88 1011.8
20260509071028 13 0 0.0 0.0 0.00 0.00 0.00 87 1011.8
20260509070528 13 0 0.0 0.0 0.00 0.00 0.00 87 1011.6
20260509070041 13 0 0.0 0.0 0.00 0.00 0.00 87 1011.7
20260509065532 13 0 0.0 0.0 0.00 0.00 0.00 87 1011.7
20260509065030 13 0 0.0 0.0 0.00 0.00 0.00 86 1011.8
20260509064540 13 0 0.0 0.0 0.00 0.00 0.00 86 1012.0
20260509064032 13 0 0.0 0.0 0.00 0.00 0.00 86 1012.0
20260509063530 13 0 0.0 0.0 0.00 0.00 0.00 86 1012.1
20260509063042 13 0 0.0 0.0 0.00 0.00 0.00 86 1012.2
20260509062528 14 0 0.0 0.0 0.00 0.00 0.00 86 1012.3
20260509062028 14 0 0.0 0.0 0.00 0.00 0.00 86 1012.4
20260509061547 14 0 0.0 0.0 0.00 0.00 0.00 86 1012.5
20260509061033 14 0 0.0 0.0 0.00 0.00 0.00 86 1012.8
20260509060532 14 0 0.0 0.0 0.00 0.00 0.00 86 1013.0
20260509060043 14 0 0.0 0.0 0.00 0.00 0.00 86 1013.0
20260509055535 14 0 0.0 0.0 0.00 0.00 0.00 86 1013.1
20260509055030 14 0 0.0 0.0 0.00 0.00 0.00 86 1013.1
20260509054550 13 0 0.0 0.0 0.00 0.00 0.00 86 1013.2
20260509054028 13 0 0.0 0.0 0.00 0.00 0.00 86 1013.2
20260509053531 13 0 0.0 0.0 0.00 0.00 0.00 85 1013.3
20260509053055 13 0 0.0 0.0 0.00 0.00 0.00 85 1013.2
20260509052531 13 0 0.0 0.0 0.00 0.00 0.00 85 1013.2
20260509052028 13 0 0.0 0.0 0.00 0.00 0.00 84 1013.1
20260509051545 13 0 0.0 0.0 0.00 0.00 0.00 84 1013.1
20260509051034 13 0 0.0 0.0 0.00 0.00 0.00 84 1013.1
20260509050530 13 0 0.0 0.0 0.00 0.00 0.00 84 1013.0
20260509050041 13 0 0.0 0.0 0.00 0.00 0.00 84 1013.1
20260509045532 14 0 0.0 0.0 0.00 0.00 0.00 84 1013.1
20260509045032 14 0 0.0 0.0 0.00 0.00 0.00 83 1013.1
20260509044548 14 0 0.0 0.0 0.00 0.00 0.00 83 1013.0
20260509044027 14 0 0.0 0.0 0.00 0.00 0.00 83 1013.1
20260509043527 14 0 0.0 0.0 0.00 0.00 0.00 83 1013.0
20260509043042 14 0 0.0 0.0 0.00 0.00 0.00 83 1013.2
20260509042531 14 0 0.0 0.0 0.00 0.00 0.00 82 1013.3
20260509042031 14 0 0.0 0.0 0.00 0.00 0.00 82 1013.3
20260509041540 14 0 0.0 0.0 0.00 0.00 0.00 81 1013.3
20260509041032 14 0 0.0 0.0 0.00 0.00 0.00 81 1013.3
20260509040532 14 0 0.0 0.0 0.00 0.00 0.00 81 1013.2
20260509040044 15 0 0.0 0.0 0.00 0.00 0.00 80 1013.5
20260509035530 15 0 0.0 0.0 0.00 0.00 0.00 80 1013.6
20260509035031 15 0 0.0 0.0 0.00 0.00 0.00 80 1013.6
20260509034539 15 0 0.0 0.0 0.00 0.00 0.00 79 1013.6
20260509034030 15 0 0.0 0.0 0.00 0.00 0.00 79 1013.5
20260509033531 15 0 0.0 0.0 0.00 0.00 0.00 79 1013.9
20260509033035 15 0 0.0 0.0 0.00 0.00 0.00 78 1013.7
20260509032533 15 0 0.0 0.0 0.00 0.00 0.00 78 1013.8
20260509032031 15 0 0.0 0.0 0.00 0.00 0.00 77 1013.9
20260509031543 15 0 0.0 0.0 0.00 0.00 0.00 77 1013.9